QPF
0.00 0.00 0.01 0.00 0.00 0.00 0.00 0.00 0.00 0.00 0.00 0.00 0.00 0.00 0.00 0.00 0.00 0.00 0.00 0.01 0.02 0.01 0.01 0.01 0.03 0.03 0.01 0.00 0.00 0.00 0.00 0.00 0.00 0.00 0.00 0.00 0.00 0.00 0.00 0.00 0.01 0.01 0.00
0.00 0.00 0.01 0.00 0.00 0.00 0.00 0.00 0.00 0.00 0.00 0.00 0.00 0.00 0.00 0.00 0.00 0.00 0.00 0.00 0.02 0.02 0.02 0.02 0.02 0.05 0.02 0.00 0.01 0.00 0.00 0.00 0.02 0.02 0.00 0.00 0.00 0.00 0.00 0.00 0.00 0.00 0.01
0.00 0.00 0.00 0.01 0.00 0.00 0.00 0.00 0.00 0.00 0.00 0.00 0.00 0.00 0.00 0.00 0.00 0.00 0.00 0.01 0.03 0.01 0.01 0.02 0.02 0.01 0.02 0.00 0.00 0.00 0.00 0.00 0.00 0.00 0.00 0.00 0.01 0.01 0.00 0.00 0.00 0.00 0.00
0.00 0.00 0.01 0.01 0.00 0.00 0.00 0.00 0.00 0.00 0.00 0.00 0.00 0.00 0.00 0.00 0.00 0.00 0.00 0.01 0.04 0.02 0.00 0.02 0.01 0.01 0.00 0.00 0.00 0.00 0.00 0.00 0.00 0.00 0.00 0.00 0.00 0.02 0.01 0.00 0.00 0.00 0.00
0.00 0.00 0.02 0.01 0.02 0.01 0.00 0.00 0.00 0.01 0.01 0.00 0.00 0.00 0.00 0.00 0.00 0.00 0.00 0.01 0.01 0.01 0.00 0.01 0.00 0.00 0.00 0.00 0.00 0.00 0.00 0.00 0.00 0.00 0.00 0.01 0.01 0.01 0.01 0.01 0.00 0.00 0.00
0.00 0.00 0.03 0.04 0.02 0.01 0.00 0.00 0.00 0.01 0.03 0.00 0.00 0.00 0.00 0.00 0.00 0.00 0.00 0.00 0.00 0.00 0.00 0.00 0.00 0.00 0.00 0.00 0.00 0.00 0.00 0.00 0.00 0.00 0.00 0.01 0.02 0.03 0.02 0.02 0.01 0.01 0.00
0.00 0.00 0.04 0.01 0.02 0.05 0.00 0.00 0.00 0.01 0.03 0.01 0.00 0.00 0.00 0.00 0.00 0.01 0.00 0.00 0.00 0.00 0.00 0.01 0.01 0.03 0.01 0.01 0.00 0.00 0.00 0.00 0.00 0.00 0.00 0.00 0.01 0.01 0.01 0.01 0.01 0.01 0.01
0.00 0.00 0.03 0.05 0.04 0.05 0.03 0.01 0.01 0.02 0.01 0.01 0.01 0.00 0.00 0.00 0.00 0.01 0.01 0.00 0.00 0.00 0.00 0.00 0.02 0.03 0.01 0.02 0.00 0.00 0.00 0.00 0.00 0.00 0.01 0.01 0.01 0.01 0.01 0.01 0.00 0.00 0.00
0.00 0.00 0.01 0.08 0.04 0.09 0.20 0.20 0.10 0.10 0.04 0.01 0.01 0.00 0.00 0.00 0.00 0.01 0.00 0.00 0.00 0.00 0.00 0.00 0.02 0.01 0.02 0.01 0.01 0.00 0.00 0.00 0.00 0.00 0.00 0.00 0.01 0.01 0.01 0.00 0.00 0.00 0.00
0.00 0.00 0.01 0.07 0.09 0.03 0.04 0.19 0.34 0.29 0.18 0.06 0.03 0.02 0.00 0.00 0.00 0.00 0.00 0.00 0.01 0.00 0.00 0.00 0.02 0.02 0.01 0.00 0.00 0.00 0.00 0.00 0.00 0.00 0.00 0.00 0.00 0.00 0.00 0.00 0.00 0.00 0.00
0.01 0.01 0.06 0.10 0.11 0.14 0.08 0.05 0.12 0.35 0.23 0.17 0.09 0.04 0.01 0.00 0.00 0.00 0.00 0.01 0.01 0.01 0.00 0.00 0.00 0.01 0.00 0.00 0.00 0.00 0.00 0.00 0.00 0.00 0.00 0.00 0.00 0.00 0.00 0.00 0.00 0.00 0.00
0.06 0.01 0.02 0.04 0.12 0.13 0.17 0.25 0.19 0.24 0.23 0.15 0.20 0.10 0.04 0.00 0.00 0.00 0.01 0.03 0.02 0.02 0.01 0.00 0.00 0.00 0.00 0.00 0.00 0.00 0.00 0.00 0.00 0.00 0.00 0.00 0.00 0.00 0.00 0.00 0.00 0.00 0.00
0.01 0.01 0.01 0.03 0.10 0.14 0.09 0.10 0.18 0.35 0.32 0.10 0.18 0.31 0.23 0.12 0.01 0.01 0.02 0.02 0.08 0.03 0.00 0.00 0.00 0.00 0.00 0.00 0.00 0.00 0.00 0.00 0.00 0.00 0.00 0.00 0.00 0.00 0.00 0.00 0.00 0.00 0.00
0.00 0.01 0.02 0.02 0.04 0.14 0.12 0.03 0.03 0.11 0.17 0.12 0.05 0.14 0.25 0.25 0.06 0.01 0.02 0.01 0.06 0.01 0.00 0.00 0.00 0.00 0.00 0.00 0.00 0.00 0.00 0.00 0.00 0.00 0.00 0.00 0.00 0.00 0.00 0.00 0.00 0.00 0.00
0.00 0.00 0.00 0.04 0.01 0.02 0.05 0.09 0.07 0.02 0.06 0.04 0.00 0.00 0.04 0.15 0.13 0.04 0.04 0.02 0.00 0.00 0.00 0.00 0.00 0.00 0.00 0.00 0.00 0.00 0.00 0.00 0.00 0.00 0.00 0.00 0.00 0.00 0.00 0.00 0.00 0.00 0.00
0.00 0.00 0.00 0.00 0.01 0.01 0.01 0.01 0.03 0.02 0.00 0.01 0.00 0.00 0.00 0.05 0.05 0.03 0.06 0.05 0.00 0.00 0.00 0.00 0.00 0.00 0.00 0.00 0.00 0.00 0.00 0.00 0.00 0.00 0.00 0.00 0.00 0.00 0.00 0.00 0.00 0.00 0.00
0.00 0.00 0.00 0.00 0.00 0.01 0.01 0.00 0.00 0.00 0.01 0.00 0.00 0.00 0.00 0.08 0.11 0.02 0.01 0.03 0.01 0.00 0.00 0.00 0.00 0.00 0.00 0.00 0.00 0.00 0.00 0.00 0.00 0.00 0.00 0.00 0.00 0.00 0.00 0.00 0.00 0.00 0.00
0.00 0.00 0.00 0.00 0.00 0.00 0.00 0.01 0.00 0.00 0.00 0.01 0.01 0.01 0.01 0.08 0.10 0.03 0.00 0.00 0.00 0.00 0.00 0.00 0.00 0.00 0.00 0.00 0.00 0.00 0.00 0.00 0.00 0.00 0.00 0.00 0.00 0.00 0.00 0.00 0.00 0.00 0.00
0.00 0.00 0.00 0.00 0.00 0.00 0.00 0.00 0.00 0.00 0.00 0.01 0.02 0.04 0.06 0.09 0.10 0.04 0.00 0.01 0.00 0.00 0.00 0.00 0.00 0.00 0.00 0.00 0.00 0.00 0.00 0.00 0.00 0.00 0.00 0.00 0.00 0.00 0.00 0.00 0.00 0.00 0.00
0.00 0.00 0.00 0.00 0.00 0.00 0.00 0.00 0.00 0.00 0.00 0.02 0.03 0.05 0.07 0.11 0.06 0.02 0.01 0.00 0.00 0.00 0.00 0.00 0.00 0.00 0.00 0.00 0.00 0.00 0.00 0.00 0.00 0.00 0.00 0.00 0.00 0.00 0.00 0.00 0.00 0.00 0.00
0.00 0.00 0.00 0.00 0.00 0.00 0.01 0.00 0.00 0.00 0.01 0.02 0.04 0.05 0.05 0.06 0.03 0.01 0.01 0.00 0.00 0.00 0.00 0.00 0.00 0.00 0.00 0.00 0.00 0.00 0.00 0.00 0.00 0.00 0.00 0.00 0.00 0.00 0.00 0.00 0.00 0.00 0.00
0.00 0.00 0.00 0.00 0.00 0.00 0.01 0.00 0.00 0.00 0.02 0.04 0.05 0.05 0.05 0.03 0.02 0.00 0.01 0.00 0.00 0.00 0.00 0.00 0.00 0.00 0.00 0.00 0.00 0.00 0.00 0.00 0.00 0.00 0.00 0.00 0.00 0.00 0.00 0.00 0.00 0.00 0.00
0.01 0.00 0.00 0.00 0.00 0.02 0.01 0.02 0.01 0.00 0.00 0.02 0.07 0.06 0.03 0.00 0.00 0.00 0.00 0.00 0.00 0.00 0.00 0.00 0.00 0.00 0.00 0.00 0.00 0.00 0.00 0.00 0.00 0.00 0.00 0.00 0.00 0.00 0.00 0.00 0.00 0.00 0.00
0.04 0.03 0.02 0.01 0.01 0.02 0.02 0.06 0.01 0.01 0.01 0.00 0.02 0.02 0.01 0.00 0.00 0.00 0.00 0.00 0.00 0.00 0.00 0.00 0.00 0.00 0.00 0.00 0.00 0.00 0.00 0.00 0.00 0.00 0.00 0.00 0.00 0.00 0.00 0.00 0.00 0.00 0.00
0.05 0.03 0.03 0.02 0.02 0.06 0.06 0.15 0.12 0.10 0.02 0.00 0.01 0.02 0.01 0.00 0.00 0.01 0.00 0.00 0.00 0.00 0.00 0.00 0.00 0.00 0.00 0.00 0.00 0.00 0.00 0.00 0.00 0.00 0.00 0.00 0.00 0.00 0.00 0.00 0.00 0.00 0.00
0.00 0.02 0.04 0.02 0.02 0.08 0.06 0.05 0.23 0.19 0.04 0.02 0.00 0.01 0.01 0.02 0.02 0.01 0.01 0.00 0.00 0.00 0.00 0.00 0.00 0.00 0.00 0.00 0.00 0.00 0.00 0.00 0.00 0.00 0.00 0.00 0.00 0.00 0.00 0.00 0.00 0.00 0.00
MSLP
1008.93 1009.61 1010.64 1010.85 1011.21 1011.64 1011.68 1011.85 1012.00 1012.18 1012.43 1012.60 1012.85 1012.98 1013.05 1013.13 1013.23 1013.32 1013.36 1013.40 1013.39 1013.36 1013.41 1013.45 1013.51 1013.47 1013.58 1013.68 1013.78 1013.84 1013.84 1013.78 1013.65 1013.54 1013.54 1013.48 1013.27 1013.09 1012.92 1012.62 1012.20 1012.07 1012.01
1008.63 1009.42 1010.72 1010.96 1011.26 1011.68 1012.01 1012.16 1012.26 1012.38 1012.57 1012.80 1013.13 1013.20 1013.21 1013.31 1013.49 1013.59 1013.69 1013.73 1013.73 1013.76 1013.81 1013.91 1013.94 1014.01 1014.06 1014.18 1014.33 1014.33 1014.22 1014.04 1013.95 1013.76 1013.61 1013.84 1013.90 1013.80 1013.65 1013.46 1013.10 1012.85 1012.65
1008.56 1009.52 1010.64 1011.10 1011.29 1011.63 1012.05 1012.29 1012.52 1012.68 1012.80 1012.96 1013.16 1013.41 1013.44 1013.48 1013.69 1013.85 1013.95 1014.01 1014.08 1014.14 1014.27 1014.31 1014.37 1014.48 1014.54 1014.68 1014.84 1014.78 1014.59 1014.37 1014.03 1013.79 1013.62 1013.89 1014.40 1014.31 1014.25 1014.05 1013.79 1013.56 1013.28
1008.43 1009.58 1010.39 1011.17 1011.41 1011.69 1011.95 1012.24 1012.57 1012.87 1012.94 1013.15 1013.38 1013.51 1013.69 1013.84 1013.77 1014.03 1014.21 1014.32 1014.48 1014.51 1014.62 1014.76 1014.80 1014.85 1015.06 1015.18 1015.28 1015.14 1014.93 1014.65 1014.50 1014.54 1014.62 1014.62 1014.80 1014.96 1014.78 1014.66 1014.45 1014.26 1014.00
1008.33 1009.31 1010.22 1011.09 1011.53 1011.78 1012.05 1012.29 1012.58 1012.82 1013.14 1013.26 1013.48 1013.78 1013.88 1014.08 1014.17 1014.20 1014.45 1014.58 1014.69 1014.92 1015.05 1015.21 1015.25 1015.36 1015.47 1015.68 1015.69 1015.53 1015.23 1014.99 1014.76 1015.07 1015.45 1015.59 1015.61 1015.71 1015.57 1015.36 1015.16 1015.03 1014.84
1008.36 1009.07 1010.45 1011.12 1011.59 1011.89 1012.13 1012.35 1012.56 1012.84 1013.21 1013.44 1013.67 1013.82 1014.13 1014.28 1014.42 1014.55 1014.64 1014.81 1014.94 1015.16 1015.33 1015.49 1015.70 1015.79 1015.84 1016.07 1016.00 1015.90 1015.69 1015.40 1015.19 1015.39 1015.92 1016.31 1016.44 1016.37 1016.23 1016.12 1016.03 1015.80 1015.54
1008.34 1008.88 1010.41 1011.17 1011.56 1011.94 1012.20 1012.33 1012.56 1012.75 1013.27 1013.59 1013.80 1014.04 1014.24 1014.46 1014.71 1014.77 1014.97 1015.16 1015.28 1015.45 1015.57 1015.77 1016.04 1016.19 1016.25 1016.44 1016.41 1016.29 1016.07 1016.06 1016.25 1016.29 1016.52 1016.82 1017.09 1016.94 1016.87 1016.78 1016.68 1016.54 1016.29
1008.36 1008.58 1009.90 1011.19 1011.57 1011.85 1012.04 1012.29 1012.58 1012.82 1013.24 1013.64 1014.01 1014.21 1014.46 1014.67 1014.89 1015.12 1015.27 1015.52 1015.63 1015.77 1015.88 1016.02 1016.41 1016.66 1016.81 1016.87 1016.85 1016.67 1016.39 1016.25 1016.63 1017.10 1017.52 1017.68 1017.70 1017.67 1017.66 1017.62 1017.49 1017.35 1017.19
1008.68 1008.75 1009.51 1010.83 1011.49 1011.93 1012.10 1012.31 1012.56 1012.83 1013.22 1013.72 1013.96 1014.37 1014.70 1014.93 1015.16 1015.35 1015.56 1015.79 1015.96 1016.13 1016.21 1016.39 1016.63 1017.02 1017.24 1017.48 1017.37 1017.14 1016.83 1016.58 1016.75 1017.66 1017.82 1018.31 1018.40 1018.43 1018.46 1018.48 1018.35 1018.26 1018.15
1009.29 1008.99 1009.67 1010.42 1011.33 1011.46 1011.89 1012.30 1012.62 1013.04 1013.40 1013.82 1014.21 1014.50 1014.83 1015.24 1015.51 1015.66 1015.77 1016.05 1016.29 1016.46 1016.62 1016.84 1017.04 1017.27 1017.61 1017.87 1017.83 1017.58 1017.29 1017.18 1017.68 1018.30 1018.80 1019.12 1019.03 1019.10 1019.20 1019.24 1019.15 1019.17 1019.10
1010.24 1009.66 1010.16 1010.76 1010.90 1011.23 1011.52 1011.65 1012.37 1013.17 1013.72 1013.94 1014.41 1014.78 1015.10 1015.37 1015.65 1015.91 1015.77 1016.17 1016.53 1016.79 1017.02 1017.35 1017.51 1017.65 1018.02 1018.25 1018.32 1018.14 1017.86 1017.61 1018.19 1018.94 1019.59 1019.76 1019.65 1019.74 1019.88 1019.92 1019.97 1019.88 1019.87
1010.84 1010.73 1010.38 1010.68 1011.16 1011.27 1011.56 1011.97 1012.03 1012.86 1014.01 1014.39 1014.17 1014.78 1014.89 1015.25 1015.04 1015.36 1015.85 1016.39 1016.65 1017.04 1017.32 1017.74 1017.90 1018.03 1017.78 1018.29 1018.43 1018.20 1017.79 1018.13 1018.93 1019.67 1020.34 1020.40 1020.34 1020.41 1020.49 1020.58 1020.63 1020.63 1020.61
1009.90 1010.55 1010.93 1010.73 1010.84 1011.35 1011.86 1012.61 1013.04 1013.31 1013.89 1014.57 1015.23 1015.00 1015.13 1015.32 1015.18 1015.61 1016.06 1016.48 1017.08 1017.14 1017.42 1017.72 1018.10 1017.64 1017.08 1017.85 1018.29 1017.76 1017.96 1018.48 1019.39 1020.35 1020.92 1021.01 1021.02 1021.10 1021.18 1021.22 1021.22 1021.19 1021.15
1009.88 1009.91 1010.34 1010.88 1011.23 1011.46 1011.78 1012.04 1013.06 1013.88 1014.02 1014.62 1015.16 1015.04 1016.50 1015.99 1015.53 1015.49 1015.84 1015.99 1016.90 1016.98 1017.06 1017.42 1017.42 1017.66 1017.70 1017.82 1017.72 1018.08 1018.26 1019.08 1019.97 1020.81 1021.35 1021.51 1021.56 1021.66 1021.80 1021.82 1021.84 1021.86 1021.86
1009.89 1010.04 1010.22 1010.54 1011.02 1011.31 1011.67 1012.01 1012.59 1013.50 1014.12 1014.12 1014.61 1014.35 1015.16 1015.85 1017.05 1016.33 1016.23 1016.17 1016.16 1016.41 1016.99 1017.11 1017.72 1017.93 1017.93 1017.76 1017.94 1018.20 1018.58 1019.22 1020.11 1021.24 1021.83 1022.05 1022.15 1022.20 1022.31 1022.35 1022.38 1022.49 1022.49
1009.32 1009.67 1010.21 1010.52 1010.67 1011.16 1011.49 1011.75 1012.05 1012.38 1013.27 1014.07 1014.27 1013.80 1014.66 1015.94 1017.70 1016.48 1016.70 1016.45 1016.35 1016.30 1016.95 1017.66 1017.81 1017.99 1018.02 1018.17 1018.56 1018.68 1019.07 1019.68 1020.55 1021.34 1022.03 1022.53 1022.65 1022.75 1022.82 1022.91 1022.93 1023.04 1023.16
1009.19 1009.24 1009.75 1010.35 1010.80 1010.86 1011.33 1011.57 1011.82 1011.94 1012.28 1013.08 1013.89 1014.00 1014.43 1014.86 1015.28 1016.32 1015.92 1016.49 1016.54 1016.69 1017.61 1018.17 1018.39 1018.73 1018.88 1019.12 1019.38 1019.54 1019.73 1020.08 1020.68 1021.38 1022.06 1022.65 1023.16 1023.37 1023.35 1023.36 1023.45 1023.56 1023.70
1009.28 1009.14 1009.23 1009.67 1010.20 1010.50 1010.85 1011.34 1011.47 1011.66 1012.08 1012.30 1012.84 1013.69 1014.17 1014.64 1015.23 1015.64 1015.85 1015.64 1016.36 1016.91 1017.48 1017.96 1018.37 1018.71 1019.10 1019.38 1019.64 1019.94 1020.24 1020.49 1020.73 1021.34 1021.90 1022.44 1023.06 1023.65 1023.85 1023.86 1023.87 1023.99 1024.11
1009.41 1009.19 1009.06 1009.22 1009.62 1009.96 1010.28 1010.77 1011.51 1012.03 1011.74 1012.07 1012.69 1013.21 1013.49 1013.90 1014.51 1015.40 1015.28 1015.92 1016.10 1016.81 1017.40 1017.94 1018.44 1018.75 1019.07 1019.53 1020.01 1020.43 1020.64 1020.89 1021.34 1021.71 1022.04 1022.48 1022.92 1023.42 1024.15 1024.46 1024.37 1024.42 1024.52
1009.11 1009.36 1009.21 1009.16 1009.30 1009.45 1009.88 1010.70 1011.00 1011.45 1011.60 1011.63 1012.11 1012.61 1013.13 1013.57 1014.24 1014.93 1015.47 1015.98 1016.37 1016.95 1017.77 1018.07 1018.42 1018.96 1019.28 1019.82 1020.10 1020.73 1020.98 1021.32 1021.45 1021.85 1022.33 1022.76 1023.30 1023.58 1024.02 1024.45 1024.49 1024.97 1025.02
1008.66 1009.05 1009.24 1009.12 1009.13 1009.16 1010.10 1010.64 1010.75 1011.19 1011.32 1011.94 1012.16 1012.35 1012.71 1013.30 1014.21 1014.93 1015.52 1016.04 1016.85 1017.03 1017.89 1018.27 1018.61 1019.08 1019.43 1019.86 1020.33 1021.00 1021.53 1021.57 1021.69 1022.05 1022.46 1022.85 1023.43 1023.65 1023.97 1024.25 1024.12 1024.68 1025.36
1008.29 1008.61 1008.94 1008.74 1008.89 1008.99 1010.11 1010.57 1010.64 1010.97 1011.71 1012.23 1012.59 1012.88 1012.90 1013.56 1013.98 1014.85 1015.42 1016.02 1016.93 1017.44 1018.03 1018.27 1018.65 1019.15 1019.64 1020.07 1020.45 1020.87 1021.34 1021.86 1021.87 1022.32 1022.44 1022.65 1023.17 1023.58 1023.82 1024.06 1024.15 1024.49 1024.88
1009.03 1008.50 1008.52 1008.53 1008.66 1009.08 1010.14 1010.76 1011.38 1011.81 1012.36 1012.71 1013.01 1013.17 1013.37 1013.80 1014.36 1014.77 1015.38 1015.47 1016.73 1017.32 1017.95 1018.41 1018.93 1019.16 1019.56 1020.02 1020.19 1020.14 1020.55 1020.68 1021.55 1022.09 1022.45 1022.85 1023.03 1023.64 1023.78 1024.15 1024.62 1024.79 1024.82
1009.80 1009.33 1009.05 1008.87 1008.93 1009.72 1010.35 1011.17 1011.47 1011.98 1012.55 1012.95 1013.13 1013.15 1013.67 1014.19 1014.64 1015.23 1015.49 1016.02 1016.48 1017.39 1017.87 1018.54 1019.02 1019.33 1019.71 1019.90 1019.97 1019.96 1019.96 1019.81 1020.71 1021.64 1022.29 1022.59 1023.07 1023.53 1023.94 1024.45 1024.47 1024.39 1024.83
1010.50 1010.02 1009.68 1009.62 1009.92 1010.21 1010.69 1011.06 1011.56 1012.40 1012.83 1013.30 1013.57 1013.49 1013.95 1014.64 1015.35 1015.72 1016.01 1016.46 1016.98 1017.32 1017.84 1018.45 1018.78 1019.17 1019.61 1019.75 1020.01 1020.32 1020.40 1020.22 1020.32 1020.67 1021.58 1022.53 1023.17 1023.76 1024.29 1024.76 1024.90 1025.04 1025.39
1011.07 1010.70 1010.51 1010.45 1010.49 1010.49 1010.60 1010.84 1011.68 1012.53 1013.04 1013.38 1013.54 1013.59 1014.22 1015.27 1016.00 1016.52 1016.46 1016.67 1016.96 1017.16 1017.59 1018.03 1018.53 1019.08 1019.34 1019.68 1020.15 1020.34 1020.57 1020.76 1020.63 1020.90 1021.14 1021.88 1023.03 1024.14 1024.95 1025.54 1025.61 1026.08 1026.01
Thickness
5790 5787 5780 5778 5776 5772 5772 5770 5770 5770 5768 5767 5764 5764 5764 5764 5764 5764 5764 5764 5765 5765 5766 5766 5765 5765 5765 5764 5763 5762 5762 5762 5763 5764 5764 5765 5766 5767 5768 5769 5770 5769 5767
5793 5786 5775 5774 5773 5769 5768 5766 5765 5765 5765 5764 5761 5761 5762 5762 5760 5761 5760 5761 5761 5761 5762 5761 5761 5761 5761 5760 5758 5758 5759 5760 5760 5762 5764 5762 5762 5762 5762 5762 5763 5763 5762
5789 5782 5773 5770 5769 5767 5764 5763 5761 5759 5759 5760 5760 5758 5758 5759 5757 5757 5757 5757 5757 5757 5757 5757 5757 5756 5756 5755 5754 5755 5756 5758 5760 5761 5763 5761 5757 5757 5757 5757 5758 5757 5757
5786 5776 5770 5765 5764 5762 5761 5760 5758 5756 5755 5754 5755 5755 5754 5754 5755 5754 5753 5753 5753 5753 5753 5752 5752 5752 5751 5750 5750 5751 5753 5755 5756 5756 5755 5754 5753 5752 5753 5752 5753 5752 5752
5781 5774 5766 5761 5758 5756 5755 5755 5755 5753 5750 5751 5750 5749 5750 5749 5749 5750 5749 5749 5749 5748 5748 5747 5747 5747 5746 5745 5746 5747 5750 5752 5753 5751 5748 5747 5747 5746 5747 5747 5747 5747 5746
5774 5769 5758 5753 5751 5750 5748 5749 5749 5749 5746 5745 5745 5745 5744 5744 5744 5745 5745 5744 5745 5744 5744 5743 5741 5741 5742 5740 5742 5743 5745 5748 5749 5747 5744 5740 5739 5740 5741 5741 5741 5741 5742
5767 5763 5749 5745 5743 5743 5742 5743 5743 5744 5741 5739 5740 5739 5739 5739 5738 5739 5739 5739 5739 5739 5740 5739 5737 5736 5736 5736 5738 5739 5741 5742 5740 5739 5738 5736 5734 5734 5735 5735 5735 5735 5736
5759 5756 5745 5735 5735 5735 5737 5736 5736 5737 5736 5734 5732 5733 5733 5733 5733 5733 5734 5733 5733 5734 5734 5735 5732 5730 5729 5731 5732 5735 5737 5739 5736 5732 5729 5728 5728 5728 5727 5727 5728 5728 5728
5750 5748 5741 5729 5726 5725 5728 5728 5730 5729 5728 5726 5726 5726 5726 5725 5726 5726 5727 5727 5728 5727 5728 5728 5729 5726 5723 5723 5725 5729 5733 5735 5734 5727 5726 5722 5721 5720 5720 5719 5720 5719 5719
5735 5737 5730 5724 5717 5719 5718 5721 5721 5719 5719 5717 5717 5719 5718 5717 5717 5718 5721 5720 5720 5721 5721 5721 5722 5721 5718 5716 5719 5724 5727 5728 5725 5721 5717 5715 5715 5714 5713 5712 5712 5711 5710
5714 5720 5717 5713 5713 5712 5714 5717 5714 5711 5711 5710 5709 5709 5709 5709 5709 5710 5714 5715 5713 5714 5714 5714 5714 5715 5713 5711 5713 5717 5721 5723 5719 5714 5709 5709 5709 5708 5707 5705 5704 5704 5703
5693 5699 5705 5706 5703 5704 5704 5705 5708 5704 5701 5700 5703 5697 5702 5702 5706 5707 5709 5707 5708 5707 5707 5706 5708 5709 5712 5708 5708 5713 5717 5717 5711 5707 5702 5701 5702 5701 5700 5699 5697 5696 5695
5694 5691 5690 5695 5695 5693 5692 5692 5687 5691 5691 5691 5686 5683 5687 5693 5697 5699 5700 5702 5699 5702 5701 5702 5702 5708 5714 5709 5707 5712 5712 5711 5705 5699 5696 5694 5694 5693 5692 5692 5691 5690 5690
5683 5684 5684 5682 5682 5683 5683 5685 5680 5676 5679 5678 5672 5677 5673 5676 5682 5692 5693 5698 5695 5697 5699 5699 5702 5703 5706 5707 5709 5707 5707 5703 5698 5693 5691 5689 5687 5686 5684 5684 5683 5682 5682
5671 5672 5674 5674 5673 5673 5675 5676 5673 5668 5667 5671 5669 5679 5675 5676 5660 5674 5684 5690 5693 5697 5695 5698 5697 5697 5700 5704 5705 5704 5702 5698 5693 5687 5684 5683 5680 5679 5677 5676 5676 5675 5674
5665 5664 5663 5663 5666 5664 5665 5669 5668 5669 5665 5662 5665 5674 5670 5660 5643 5666 5672 5680 5686 5691 5690 5688 5691 5693 5695 5697 5696 5697 5695 5691 5685 5682 5677 5674 5673 5672 5670 5669 5668 5667 5666
5655 5655 5655 5654 5655 5657 5656 5660 5662 5666 5666 5662 5662 5666 5664 5664 5667 5661 5673 5673 5677 5682 5679 5679 5682 5682 5684 5685 5685 5685 5686 5684 5681 5677 5672 5669 5665 5663 5663 5662 5661 5659 5658
5642 5643 5646 5650 5650 5652 5653 5653 5657 5660 5662 5664 5664 5661 5662 5661 5657 5660 5662 5678 5670 5676 5675 5675 5677 5677 5678 5679 5679 5678 5677 5677 5676 5672 5670 5666 5661 5656 5655 5654 5653 5651 5650
5625 5630 5635 5641 5645 5648 5650 5651 5649 5651 5659 5661 5660 5661 5662 5664 5663 5659 5663 5667 5669 5672 5671 5671 5671 5673 5673 5673 5672 5671 5670 5669 5666 5665 5663 5660 5657 5653 5647 5645 5645 5643 5641
5612 5615 5624 5632 5639 5646 5648 5646 5649 5650 5654 5659 5659 5662 5661 5662 5661 5659 5659 5658 5666 5664 5664 5666 5667 5667 5668 5667 5667 5662 5663 5661 5661 5658 5656 5653 5649 5646 5642 5639 5638 5633 5632
5603 5605 5613 5622 5633 5641 5640 5639 5643 5644 5651 5651 5653 5658 5659 5660 5656 5656 5653 5655 5655 5659 5656 5658 5660 5660 5662 5662 5658 5654 5652 5654 5654 5651 5649 5647 5642 5640 5636 5633 5635 5630 5623
5605 5607 5611 5622 5630 5639 5635 5637 5641 5645 5644 5643 5644 5646 5651 5652 5654 5651 5649 5651 5647 5646 5646 5652 5655 5654 5655 5655 5649 5648 5641 5642 5646 5644 5644 5642 5638 5634 5631 5629 5627 5624 5621
5602 5609 5614 5623 5631 5635 5631 5630 5631 5634 5633 5634 5635 5639 5643 5645 5645 5645 5643 5646 5639 5640 5640 5645 5648 5649 5646 5648 5650 5650 5641 5639 5639 5640 5637 5634 5633 5627 5626 5623 5617 5614 5612
5601 5607 5613 5621 5626 5625 5626 5624 5627 5627 5624 5624 5628 5633 5635 5637 5637 5634 5638 5638 5639 5636 5636 5637 5641 5643 5642 5641 5646 5650 5650 5651 5636 5628 5631 5631 5627 5623 5618 5613 5611 5611 5604
5604 5607 5612 5616 5618 5621 5621 5621 5621 5618 5616 5615 5619 5624 5629 5628 5627 5629 5630 5631 5632 5632 5632 5634 5639 5640 5638 5639 5639 5637 5638 5642 5641 5634 5623 5621 5619 5614 5606 5603 5600 5596 5593
5604 5608 5610 5611 5614 5617 5618 5621 5616 5609 5608 5610 5613 5619 5620 5619 5618 5619 5623 5627 5627 5628 5630 5634 5635 5633 5634 5634 5631 5631 5629 5625 5627 5626 5623 5621 5609 5602 5595 5590 5590 5583 5582